This demonstration page uses our WeatherBlox Daily Observations layout. Learn more.

Left ArrowRight Arrow

34.74481, -87.66753

Hourly Observations for July 9, 2022

Temp ( °F °C ) Dew Point ( °F °C ) Humidity (%) Winds ( mph kmh ) Pressure ( in mb ) Visibility ( mi km ) Precip ( " mm )
12:53 am 00:53 Clear 85 29.4 74 23.3 70 70 SW 3 6 29.95 1014 10 16 0.00 0.00
1:53 am 01:53 Clear 84 28.9 75 23.9 74 74 WSW 6 9 29.96 1014 10 16 0.00 0.00
2:53 am 02:53 Clear 83 28.3 75 23.9 77 77 WSW 5 7 29.95 1014 10 16 0.00 0.00
3:53 am 03:53 Clear 82 27.8 76 24.4 82 82 WSW 5 7 29.95 1014 10 16 0.00 0.00
4:53 am 04:53 Mostly Cloudy 83 28.3 76 24.4 79 79 WNW 5 7 29.96 1015 10 16 0.00 0.00
5:24 am 05:24 Mostly Cloudy with Nearby Thunderstorms 83 28.3 76 24.4 79 79 WNW 5 7 29.96 1015 10 16 0.00 0.00
5:39 am 05:39 Mostly Cloudy 83 28.3 76 24.4 79 79 NNW 6 9 29.98 1015 10 16 0.00 0.00
5:53 am 05:53 Mostly Cloudy 81 27.2 73 22.8 77 77 NNE 9 15 29.99 1016 10 16 0.00 0.00
6:00 am 06:00 Cloudy 81 27.2 73 22.8 77 77 NNE 12 19 30.00 1016 10 16 0.00 0.00
6:17 am 06:17 Cloudy with Nearby Thunderstorms 79 26.1 72 22.2 79 79 N 8 13 30.02 1016 10 16 0.00 0.00
6:35 am 06:35 Cloudy with Thunderstorms 77 25 73 22.8 88 88 NE 10 17 30.02 1017 6 10 0.04 1.02
6:50 am 06:50 Cloudy with Strong Thunderstorms 75 24 73 23 94 94 ENE 9 15 30.02 1017 2 3 0.25 6.35
6:53 am 06:53 Cloudy with Strong Thunderstorms 75 23.9 74 23.3 96 96 ENE 8 13 30.02 1017 2 3 0.27 6.86
6:59 am 06:59 Cloudy with Thunderstorms 75 23.9 74 23.3 96 96 SSE 7 11 30.02 1017 3 5 0.01 0.25
7:28 am 07:28 Partly Cloudy with Nearby Thunderstorms 76 24.4 74 23.3 94 94 SSE 6 9 30.02 1017 8 13 0.03 0.76
7:44 am 07:44 Mostly Cloudy with Light Rain 76 24.4 74 23.3 94 94 S 3 6 30.02 1017 6 10 0.05 1.27
7:53 am 07:53 Mostly Cloudy with Light Rain 77 25 74 23.3 90 90 S 5 7 30.03 1017 5 8 0.06 1.52
8:19 am 08:19 Mostly Cloudy with Nearby Thunderstorms 79 26.1 75 23.9 88 88 undefined N/A 30.02 1016 10 16 0.02 0.51
8:53 am 08:53 Partly Cloudy with Nearby Thunderstorms 78 25.6 74 23.3 87 87 SSW 9 15 30.00 1016 6 10 0.05 1.27
9:00 am 09:00 Partly Cloudy with Rain 78 25.6 73 22.8 85 85 SW 14 22 30.00 1016 5 8 0.01 0.25
9:53 am 09:53 Mostly Cloudy with Light Rain 76 24.4 71 21.7 85 85 Calm 29.96 1015 10 16 0.05 1.27
10:53 am 10:53 Sunny 79 26.1 73 22.8 82 82 S 5 7 29.98 1015 10 16 0.00 0.00
11:53 am 11:53 Sunny 85 29.4 75 23.9 72 72 S 6 9 29.97 1015 10 16 0.00 0.00
12:53 pm 12:53 Sunny 91 32.8 76 24.4 61 61 Calm 29.95 1014 10 16 0.00 0.00
1:53 pm 13:53 Partly Cloudy 95 35 76 24.4 54 54 W 8 13 29.93 1013 10 16 0.00 0.00
2:53 pm 14:53 Mostly Sunny 98 36.7 77 25 51 51 WNW 12 19 29.89 1012 10 16 0.00 0.00
3:14 pm 15:14 Mostly Cloudy with Nearby Thunderstorms 96 35.6 75 23.9 51 51 WNW 14 22 29.86 1011 10 16 0.00 0.00
3:31 pm 15:31 Mostly Cloudy with Thunderstorms 94 34.4 76 24.4 56 56 WNW 9 15 29.85 1011 10 16 0.00 0.00
3:53 pm 15:53 Mostly Cloudy with Thunderstorms 85 29.4 76 24.4 75 75 WSW 9 15 29.88 1012 10 16 0.00 0.00
4:06 pm 16:06 Cloudy with Thunderstorms 79 26.1 75 23.9 88 88 NNW 15 24 29.89 1012 2 3 0.08 2.03
4:14 pm 16:14 Mostly Cloudy with Strong Thunderstorms 78 25.6 73 22.8 85 85 NW 21 33 29.93 1013 1 1 0.24 6.10
4:27 pm 16:27 Mostly Cloudy with Strong Thunderstorms 76 24.4 73 22.8 91 91 N 7 11 29.90 1013 1 1 0.66 16.76
4:30 pm 16:30 Mostly Cloudy with Strong Thunderstorms 76 24.4 73 22.8 91 91 VRB 6 9 29.89 1012 1 2 0.67 17.02
4:35 pm 16:35 Mostly Cloudy with Thunderstorms 78 25.6 72 22.2 82 82 VRB 6 9 29.88 1012 3 5 0.67 17.02
4:53 pm 16:53 Partly Cloudy with Nearby Thunderstorms 78 25.6 73 22.8 85 85 SW 5 7 29.87 1011 10 16 0.67 17.02
5:27 pm 17:27 Sunny 78 25.6 74 23.3 87 87 WSW 5 7 29.90 1012 10 16 0.00 0.00
5:53 pm 17:53 Mostly Cloudy with Nearby Thunderstorms 77 25 74 23.3 90 90 SSW 6 9 29.93 1014 10 16 0.00 0.00
6:02 pm 18:02 Mostly Cloudy 77 25 74 23.3 90 90 SW 7 11 29.93 1013 10 16 0.00 0.00
6:13 pm 18:13 Cloudy with Thunderstorms 78 25.6 74 23.3 87 87 SW 7 11 29.91 1013 10 16 0.00 0.00
6:36 pm 18:36 Mostly Cloudy with Nearby Thunderstorms 77 25 74 23.3 90 90 SSE 6 9 29.93 1013 10 16 0.00 0.00
6:49 pm 18:49 Mostly Cloudy 77 25 75 24 94 94 SE 3 6 29.91 1013 10 16 0.00 0.00
6:53 pm 18:53 Mostly Cloudy with Light Rain 77 25 75 23.9 94 94 SSE 5 7 29.91 1013 10 16 0.01 0.25
7:53 pm 19:53 Partly Cloudy 77 25 75 23.9 94 94 SSW 3 6 29.90 1012 10 16 0.00 0.00
8:53 pm 20:53 Clear 77 25 75 23.9 94 94 SSW 3 6 29.93 1014 10 16 0.00 0.00
9:53 pm 21:53 Mostly Cloudy 77 25 75 23.9 94 94 S 5 7 29.96 1015 10 16 0.00 0.00
10:41 pm 22:41 Mostly Cloudy 77 25 74 23.3 90 90 SW 6 9 29.97 1015 10 16 0.00 0.00
10:53 pm 22:53 Cloudy 77 25 74 23.3 90 90 SW 5 7 29.96 1015 10 16 0.00 0.00
11:43 pm 23:43 Cloudy 77 25 74 23.3 90 90 WSW 5 7 29.97 1015 10 16 0.00 0.00
11:53 pm 23:53 Cloudy 77 25 74 23.3 90 90 SW 5 7 29.96 1015 10 16 0.00 0.00

Powered by AerisWeather